Hourly Data Report for October 01, 2016

All times are specified in Local Standard Time (LST). Add 1 hour to adjust for Daylight Saving Time where and when it is observed.

MONCTON INTL A
NEW BRUNSWICK

46°06'44.000" N
64°40'43.000" W
70.70 m
8103201
71705
YQM

Download Data

Hourly Data (October 2016)
Hourly Data Report for October 1, 2016
Temp Definition
°C
Dew Point Temp Definition
°C
Rel Hum Definition
%
Wind Dir Definition
10's deg

Wind Spd Definition
km/h
Visibility Definition
km
Stn Press Definition
kPa
Hmdx Definition


Wind Chill Definition


Weather Definition


TIME
00:00 Legend Double Dagger 5.5 4.8 95 23 12 24.1 102.20     LegendNANA
01:00 Legend Double Dagger 4.8 4.1 95 22 11 24.1 102.20     LegendNANA
02:00 Legend Double Dagger 4.4 3.8 96 23 10 24.1 102.19     Clear
03:00 Legend Double Dagger 4.1 3.5 96 22 11 24.1 102.15     LegendNANA
04:00 Legend Double Dagger 3.7 3.1 96 21 8 24.1 102.14     LegendNANA
05:00 Legend Double Dagger 3.5 2.8 95 22 8 24.1 102.13     Mostly Cloudy
06:00 Legend Double Dagger 3.3 2.7 96 22 8 24.1 102.12     LegendNANA
07:00 Legend Double Dagger 3.8 3.1 95 21 13 24.1 102.12     LegendNANA
08:00 Legend Double Dagger 5.7 4.2 90 22 8 24.1 102.11     Mostly Cloudy
09:00 Legend Double Dagger 7.8 5.1 83 22 9 24.1 102.13     LegendNANA
10:00 Legend Double Dagger 10.2 6.4 77 23 5 24.1 102.11     LegendNANA
11:00 Legend Double Dagger 14.3 6.5 59 22 9 24.1 102.08     Mostly Cloudy
12:00 Legend Double Dagger 16.2 6.4 52 22 9 24.1 102.03     LegendNANA
13:00 Legend Double Dagger 17.2 5.9 47 24 9 24.1 101.93     LegendNANA
14:00 Legend Double Dagger 17.9 6.2 46 21 8 24.1 101.88     Mostly Cloudy
15:00 Legend Double Dagger 18.4 3.6 37 20 8 24.1 101.83     LegendNANA
16:00 Legend Double Dagger 17.1 7.0 51 19 9 24.1 101.78     LegendNANA
17:00 Legend Double Dagger 15.6 8.4 62 19 7 24.1 101.75     Cloudy
18:00 Legend Double Dagger 13.7 9.2 74 18 8 24.1 101.75     LegendNANA
19:00 Legend Double Dagger 12.8 9.5 80 16 8 24.1 101.71     LegendNANA
20:00 Legend Double Dagger 12.2 9.6 84 18 9 24.1 101.69     Cloudy
21:00 Legend Double Dagger 11.4 9.7 89 19 10 24.1 101.68     LegendNANA
22:00 Legend Double Dagger 10.8 9.7 93 20 10 24.1 101.64     LegendNANA
23:00 Legend Double Dagger 10.4 9.6 95 20 9 24.1 101.61     Cloudy

Notes on Data Quality.

Legend

  • E = Estimated
  • M = Missing
  • NA = Not Available
  • ‡ = Partner data that is not subject to review by the National Climate Archives
Date modified: